Location: Albany
(35.0000°S, 118.0000°E)
Time: 21:48:15
(UTC-05:00)

Atlas Centaur 2 - Visible Passes

Search period start: 03 March 2015 00:00
Search period end: 13 March 2015 01:00
Orbit: 460 x 1323 km, 30.4° (Epoch: 03 March)

Date Brightness Start Highest point End Pass type
(mag) Time Alt. Az. Time Alt. Az. Time Alt. Az.
10 Mar 5.2 16:38:17 10° NNE 16:40:55 12° NE 16:44:02 10° ENE visible
11 Mar 5.0 16:34:30 10° N 16:38:50 16° NNE 16:43:40 10° ENE visible
12 Mar 4.9 16:31:26 10° N 16:36:45 20° NNE 16:42:36 10° ENE visible
